{"data":{"norad_id":62747,"intl_designator":"2025-014N","name":"STARLINK-32765","alt_names":[],"object_type":"PAYLOAD","status":"ACTIVE","operator":null,"country":"US","launch_date":"2025-01-21","launch_site_code":"AFETR","launch_vehicle":null,"mission":null,"orbit_class":"UNKNOWN","rcs_meters":null,"size_class":null,"mass_kg":null,"dimensions":null,"purposes":["comms"],"wikipedia_slug":null,"has_3d_model":false,"image_url":null,"decayed_at":null,"tle_current":{"epoch":"2026-05-25T02:35:21.096384Z","epoch_age_seconds":76427,"freshness":"FRESH","line1":"1 62747U 25014N   26145.10788306  .00014417  00000+0  53201-3 0  9999","line2":"2 62747  42.9995  82.8931 0001196 256.7386 103.3332 15.27603406 74944","mean_motion":15.27603406,"eccentricity":0.0001196,"inclination_deg":42.9995,"raan_deg":82.8931,"arg_perigee_deg":256.7386,"mean_anomaly_deg":103.3332,"bstar":0.00053201,"rev_number":7494,"period_min":94.265304354787,"perigee_km":482.15842147536,"apogee_km":483.79960042518,"semimajor_km":6861.1160109503,"source":"CELESTRAK","updated_at":"2026-05-25T13:38:19.740659Z"}}}